Location: Mascot Post Office (historical)
(40.2645°N, 99.5462°W)
Time: 16:47:56
(UTC+00:00)

Cosmos 1470 Rocket - Pass Details

Date: 14 July 2020
Orbit: 603 x 634 km, 82.5° (Epoch: 05 August)

Event Time Altitude Azimuth Distance (km) Brightness Sun altitude
Exits shadow 07:45:26 47° 312° (NW) 847 4.3 -26.5°
Drops below altitude 10° 07:49:08 10° 357° (N) 2,027 7.1 -26.3°
Sets 07:51:26 0° 3° (N) 2,938 8.2 -26.2°
